Location: 22
(39.7117°N, 89.5929°W)
Time: 07:41:30
(UTC-05:00)

Vanguard 1 Rocket - Pass Details

Date: 27 February 2024
Orbit: 650 x 4219 km, 34.3° (Epoch: 16 July)

Event Time Altitude Azimuth Distance (km) Brightness Sun altitude
Rises 04:54:51 0° 213° (SSW) 8,448 12.0 -20.0°
Reaches altitude 10° 05:01:41 10° 206° (SSW) 7,382 11.7 -18.7°
Maximum altitude 05:22:37 37° 149° (SSE) 4,496 11.1 -14.7°
Drops below altitude 10° 05:36:25 10° 90° (E) 4,996 12.7 -12.0°
Sets 05:39:52 0° 81° (E) 5,582 13.4 -11.4°
